SWR457 LIMC-LOWW

Flight info

Callsign SWR457
Flight time 0h 58m
Altitude 34000
Route OSKOR DCT NESTI/N0481F330 DCT ARALD DCT ABTAN ABTAN2W
Aircraft B77W/H-SDE1E2E3FGHIJ2J3J4J5M1RWXY/LB1D1

Departure

Time 2026-04-25 11:03
Airport Milan Malpensa International Airport (LIMC)

Arrival

Time 2026-04-25 12:01
Airport Vienna International Airport (LOWW)
Time Latitude Longitude Altitude Speed Heading
2026-04-25 10:46 45.62878 8.71656 758 ft 0 kts 235°
2026-04-25 10:53 45.62888 8.71675 761 ft 4 kts 233°
2026-04-25 10:53 45.62905 8.71705 764 ft 4 kts 227°
2026-04-25 10:53 45.62924 8.71732 764 ft 4 kts 216°
2026-04-25 10:53 45.62947 8.71748 764 ft 4 kts 182°
2026-04-25 10:54 45.62956 8.71748 764 ft 0 kts 169°
2026-04-25 10:56 45.62955 8.71748 764 ft 0 kts 169°
2026-04-25 10:56 45.62951 8.71749 764 ft 1 kts 170°
2026-04-25 10:56 45.62925 8.71757 764 ft 7 kts 169°
2026-04-25 10:56 45.62873 8.71772 762 ft 10 kts 168°
2026-04-25 10:57 45.62782 8.71798 761 ft 15 kts 169°
2026-04-25 10:57 45.62684 8.71838 758 ft 15 kts 145°
2026-04-25 10:57 45.62670 8.71969 756 ft 15 kts 76°
2026-04-25 10:57 45.62668 8.72112 754 ft 15 kts 130°
2026-04-25 10:58 45.62573 8.72164 756 ft 15 kts 169°
2026-04-25 10:58 45.62471 8.72192 756 ft 15 kts 169°
2026-04-25 10:58 45.62369 8.72220 761 ft 15 kts 169°
2026-04-25 10:58 45.62267 8.72250 757 ft 15 kts 165°
2026-04-25 10:59 45.62231 8.72367 758 ft 15 kts 77°
2026-04-25 10:59 45.62250 8.72515 755 ft 15 kts 79°
2026-04-25 10:59 45.62270 8.72666 761 ft 16 kts 79°
2026-04-25 10:59 45.62293 8.72835 760 ft 18 kts 79°
2026-04-25 11:00 45.62283 8.73002 758 ft 18 kts 131°
2026-04-25 11:00 45.62170 8.73058 762 ft 18 kts 169°
2026-04-25 11:00 45.62048 8.73090 756 ft 18 kts 168°
2026-04-25 11:00 45.61923 8.73126 763 ft 18 kts 169°
2026-04-25 11:01 45.61800 8.73162 758 ft 18 kts 165°
2026-04-25 11:01 45.61709 8.73283 758 ft 18 kts 123°
2026-04-25 11:01 45.61636 8.73431 759 ft 18 kts 125°
2026-04-25 11:01 45.61585 8.73593 763 ft 18 kts 94°
2026-04-25 11:02 45.61650 8.73729 763 ft 18 kts
2026-04-25 11:02 45.61786 8.73690 760 ft 30 kts 349°
2026-04-25 11:02 45.62382 8.73529 767 ft 149 kts 349°
2026-04-25 11:02 45.63749 8.73153 1078 ft 237 kts 348°
2026-04-25 11:03 45.65343 8.72715 3027 ft 221 kts 352°
2026-04-25 11:03 45.66913 8.72636 3887 ft 233 kts
2026-04-25 11:03 45.68610 8.72666 4323 ft 255 kts 360°
2026-04-25 11:03 45.70422 8.72671 5109 ft 264 kts 360°
2026-04-25 11:04 45.72250 8.73063 5797 ft 272 kts 24°
2026-04-25 11:04 45.73735 8.74693 6663 ft 274 kts 44°
2026-04-25 11:04 45.75099 8.76674 7403 ft 283 kts 44°
2026-04-25 11:04 45.75983 8.78050 7948 ft 283 kts 53°
2026-04-25 11:05 45.76656 8.81690 8947 ft 294 kts 99°
2026-04-25 11:05 45.75847 8.84346 9848 ft 294 kts 133°
2026-04-25 11:05 45.74277 8.86177 10482 ft 296 kts 148°
2026-04-25 11:05 45.72536 8.88004 10744 ft 325 kts 141°
2026-04-25 11:06 45.70842 8.90348 10962 ft 356 kts 133°
2026-04-25 11:06 45.69202 8.93186 11388 ft 379 kts 129°
2026-04-25 11:06 45.67623 8.96214 12235 ft 389 kts 128°
2026-04-25 11:06 45.66022 8.99381 13256 ft 392 kts 125°
2026-04-25 11:07 45.64853 9.02983 14056 ft 405 kts 107°
2026-04-25 11:07 45.64499 9.06939 15023 ft 408 kts 91°
2026-04-25 11:07 45.64536 9.11057 15817 ft 418 kts 90°
2026-04-25 11:07 45.64598 9.15265 16689 ft 426 kts 90°
2026-04-25 11:08 45.64658 9.19492 17611 ft 432 kts 91°
2026-04-25 11:08 45.64709 9.23828 18509 ft 438 kts 91°
2026-04-25 11:08 45.64749 9.28199 19284 ft 445 kts 91°
2026-04-25 11:08 45.64779 9.32589 20067 ft 450 kts 91°
2026-04-25 11:09 45.64804 9.37071 20868 ft 456 kts 91°
2026-04-25 11:09 45.64824 9.41656 21719 ft 462 kts 91°
2026-04-25 11:09 45.64842 9.46216 22512 ft 465 kts 91°
2026-04-25 11:09 45.64858 9.50902 23323 ft 470 kts 91°
2026-04-25 11:10 45.64870 9.55263 23947 ft 476 kts 91°
2026-04-25 11:10 45.64879 9.58430 24265 ft 479 kts 91°
2026-04-25 11:10 45.64894 9.64810 25096 ft 485 kts 91°
2026-04-25 11:10 45.64904 9.69609 25718 ft 489 kts 91°
2026-04-25 11:11 45.64911 9.74510 26312 ft 493 kts 91°
2026-04-25 11:11 45.64916 9.78952 26834 ft 497 kts 91°
2026-04-25 11:11 45.64919 9.83894 27402 ft 500 kts 91°
2026-04-25 11:11 45.64921 9.88844 28019 ft 503 kts 91°
2026-04-25 11:12 45.64921 9.93875 28556 ft 506 kts 91°
2026-04-25 11:12 45.64919 9.98952 29029 ft 511 kts 91°
2026-04-25 11:12 45.64923 10.03743 29490 ft 512 kts 89°
2026-04-25 11:12 45.65321 10.08848 30043 ft 514 kts 77°
2026-04-25 11:13 45.66383 10.13659 30676 ft 510 kts 67°
2026-04-25 11:13 45.67968 10.18191 31288 ft 507 kts 56°
2026-04-25 11:13 45.69993 10.22249 31857 ft 505 kts 51°
2026-04-25 11:13 45.72043 10.26130 32464 ft 503 kts 52°
2026-04-25 11:14 45.74137 10.30159 32945 ft 504 kts 52°
2026-04-25 11:14 45.76207 10.34247 33097 ft 508 kts 53°
2026-04-25 11:14 45.78247 10.38341 33095 ft 507 kts 53°
2026-04-25 11:15 45.81897 10.46901 33103 ft 504 kts 64°
2026-04-25 11:15 45.84835 10.56027 33112 ft 506 kts 65°
2026-04-25 11:16 45.89241 10.69819 33137 ft 508 kts 65°
2026-04-25 11:16 45.92225 10.79062 33124 ft 508 kts 65°
2026-04-25 11:17 45.95191 10.88242 33128 ft 507 kts 65°
2026-04-25 11:17 45.98147 10.97430 33141 ft 506 kts 65°
2026-04-25 11:18 46.01076 11.06573 33142 ft 506 kts 65°
2026-04-25 11:18 46.04009 11.15762 33160 ft 505 kts 65°
2026-04-25 11:19 46.06942 11.24989 33143 ft 505 kts 65°
2026-04-25 11:19 46.09866 11.34217 33120 ft 505 kts 65°
2026-04-25 11:20 46.12769 11.43409 33077 ft 505 kts 65°
2026-04-25 11:20 46.15669 11.52629 33075 ft 505 kts 65°
2026-04-25 11:21 46.18557 11.61839 33079 ft 505 kts 65°
2026-04-25 11:21 46.21440 11.71073 33073 ft 505 kts 65°
2026-04-25 11:22 46.23846 11.78802 33041 ft 506 kts 65°
2026-04-25 11:22 46.27193 11.89592 33043 ft 506 kts 65°
2026-04-25 11:23 46.30057 11.98861 33061 ft 506 kts 65°
2026-04-25 11:23 46.32918 12.08152 33075 ft 506 kts 65°
2026-04-25 11:24 46.35767 12.17448 33062 ft 505 kts 65°
2026-04-25 11:24 46.38606 12.26744 33042 ft 505 kts 65°
2026-04-25 11:25 46.41438 12.36043 33072 ft 504 kts 66°
2026-04-25 11:25 46.44275 12.45399 33071 ft 505 kts 66°
2026-04-25 11:26 46.47097 12.54728 33067 ft 506 kts 66°
2026-04-25 11:26 46.49442 12.62524 33050 ft 506 kts 66°
2026-04-25 11:27 46.52254 12.71895 33041 ft 506 kts 66°
2026-04-25 11:27 46.54586 12.79694 33044 ft 507 kts 66°
2026-04-25 11:28 46.57868 12.90710 33035 ft 507 kts 66°
2026-04-25 11:28 46.60644 13.00065 33039 ft 507 kts 66°
2026-04-25 11:29 46.63437 13.09512 33043 ft 507 kts 66°
2026-04-25 11:29 46.66196 13.18886 33031 ft 507 kts 66°
2026-04-25 11:30 46.69024 13.28285 33044 ft 506 kts 63°
2026-04-25 11:30 46.72244 13.37393 33038 ft 505 kts 61°
2026-04-25 11:31 46.75521 13.46469 33036 ft 506 kts 61°
2026-04-25 11:31 46.78767 13.55558 33070 ft 504 kts 62°
2026-04-25 11:32 46.81964 13.64624 33055 ft 506 kts 62°
2026-04-25 11:32 46.85181 13.73786 33055 ft 507 kts 62°
2026-04-25 11:33 46.88397 13.82971 33061 ft 508 kts 62°
2026-04-25 11:33 46.91613 13.92185 33062 ft 509 kts 62°
2026-04-25 11:34 46.94809 14.01371 33080 ft 508 kts 62°
2026-04-25 11:34 46.98007 14.10601 33049 ft 508 kts 62°
2026-04-25 11:35 47.01201 14.19847 33071 ft 507 kts 62°
2026-04-25 11:35 47.04381 14.29087 33046 ft 507 kts 62°
2026-04-25 11:36 47.07552 14.38334 33045 ft 507 kts 62°
2026-04-25 11:36 47.10698 14.47536 33061 ft 507 kts 62°
2026-04-25 11:37 47.13000 14.57335 33050 ft 508 kts 77°
2026-04-25 11:37 47.14482 14.67493 33043 ft 509 kts 76°
2026-04-25 11:38 47.16170 14.77597 33054 ft 509 kts 75°
2026-04-25 11:38 47.17914 14.87740 32268 ft 521 kts 75°
2026-04-25 11:39 47.18790 14.92893 31418 ft 522 kts 75°
2026-04-25 11:39 47.19662 14.98055 30737 ft 518 kts 76°
2026-04-25 11:39 47.20523 15.03179 30158 ft 511 kts 76°
2026-04-25 11:39 47.21366 15.08211 29497 ft 504 kts 76°
2026-04-25 11:40 47.22198 15.13192 28892 ft 497 kts 75°
2026-04-25 11:40 47.23013 15.18077 28326 ft 491 kts 75°
2026-04-25 11:40 47.23821 15.22933 27746 ft 485 kts 76°
2026-04-25 11:40 47.24620 15.27740 27177 ft 479 kts 76°
2026-04-25 11:41 47.25408 15.32501 26599 ft 474 kts 76°
2026-04-25 11:41 47.26175 15.37147 26067 ft 470 kts 75°
2026-04-25 11:41 47.26923 15.41693 25534 ft 465 kts 76°
2026-04-25 11:41 47.27697 15.46406 24979 ft 461 kts 76°
2026-04-25 11:42 47.28444 15.50974 24449 ft 458 kts 76°
2026-04-25 11:42 47.29186 15.55517 23906 ft 455 kts 76°
2026-04-25 11:42 47.29923 15.60044 23298 ft 452 kts 76°
2026-04-25 11:42 47.30653 15.64538 22702 ft 449 kts 76°
2026-04-25 11:43 47.31373 15.68990 22154 ft 443 kts 75°
2026-04-25 11:43 47.32084 15.73388 21630 ft 439 kts 75°
2026-04-25 11:43 47.32791 15.77770 21081 ft 435 kts 75°
2026-04-25 11:43 47.33481 15.82064 20567 ft 432 kts 75°
2026-04-25 11:44 47.34169 15.86354 20060 ft 429 kts 75°
2026-04-25 11:44 47.34855 15.90638 19535 ft 426 kts 75°
2026-04-25 11:44 47.35527 15.94854 19033 ft 422 kts 75°
2026-04-25 11:44 47.36341 15.98956 18507 ft 411 kts 62°
2026-04-25 11:45 47.37932 16.02373 17983 ft 400 kts 41°
2026-04-25 11:45 47.40044 16.04885 17559 ft 389 kts 28°
2026-04-25 11:45 47.42481 16.06572 17165 ft 380 kts 15°
2026-04-25 11:45 47.44985 16.07787 16796 ft 383 kts 14°
2026-04-25 11:46 47.47519 16.08977 16401 ft 385 kts 14°
2026-04-25 11:46 47.50079 16.10189 16015 ft 384 kts 15°
2026-04-25 11:46 47.52617 16.11415 15632 ft 382 kts 15°
2026-04-25 11:46 47.55110 16.12636 15256 ft 380 kts 15°
2026-04-25 11:47 47.57622 16.13882 14865 ft 379 kts 15°
2026-04-25 11:47 47.60118 16.15123 14495 ft 377 kts 15°
2026-04-25 11:47 47.62603 16.16365 14119 ft 375 kts 15°
2026-04-25 11:47 47.65047 16.17580 13734 ft 373 kts 15°
2026-04-25 11:48 47.67504 16.18807 13327 ft 370 kts 16°
2026-04-25 11:48 47.69927 16.20035 12932 ft 361 kts 18°
2026-04-25 11:48 47.72064 16.21890 12559 ft 362 kts 39°
2026-04-25 11:48 47.73625 16.24877 12210 ft 369 kts 60°
2026-04-25 11:49 47.74413 16.28526 11903 ft 372 kts 79°
2026-04-25 11:49 47.74432 16.32310 11521 ft 371 kts 98°
2026-04-25 11:49 47.73688 16.35879 11120 ft 347 kts 110°
2026-04-25 11:49 47.72832 16.39096 10755 ft 323 kts 110°
2026-04-25 11:50 47.72038 16.42102 10432 ft 302 kts 110°
2026-04-25 11:50 47.71309 16.44915 10132 ft 286 kts 109°
2026-04-25 11:50 47.70592 16.47717 9879 ft 293 kts 109°
2026-04-25 11:50 47.69862 16.50594 9553 ft 298 kts 109°
2026-04-25 11:51 47.69135 16.53468 9227 ft 298 kts 109°
2026-04-25 11:51 47.68414 16.56324 8926 ft 297 kts 109°
2026-04-25 11:51 47.67689 16.59188 8620 ft 296 kts 109°
2026-04-25 11:51 47.66972 16.62046 8318 ft 291 kts 106°
2026-04-25 11:52 47.66729 16.64960 8011 ft 280 kts 79°
2026-04-25 11:52 47.67188 16.67685 7798 ft 274 kts 70°
2026-04-25 11:52 47.67742 16.70446 7516 ft 277 kts 66°
2026-04-25 11:52 47.68728 16.72819 7239 ft 272 kts 38°
2026-04-25 11:53 47.70344 16.74159 6977 ft 263 kts
2026-04-25 11:53 47.72140 16.74220 6723 ft 258 kts 349°
2026-04-25 11:53 47.73885 16.73739 6485 ft 257 kts 344°
2026-04-25 11:53 47.75606 16.73095 6204 ft 254 kts 342°
2026-04-25 11:54 47.77306 16.72394 5932 ft 251 kts 342°
2026-04-25 11:54 47.78967 16.71698 5665 ft 248 kts 342°
2026-04-25 11:54 47.82262 16.70314 5186 ft 242 kts 342°
2026-04-25 11:55 47.83857 16.69646 4949 ft 239 kts 341°
2026-04-25 11:55 47.85456 16.68980 4722 ft 233 kts 342°
2026-04-25 11:55 47.86963 16.68350 4471 ft 221 kts 340°
2026-04-25 11:55 47.88401 16.67750 4249 ft 211 kts 340°
2026-04-25 11:56 47.89801 16.67161 4072 ft 203 kts 340°
2026-04-25 11:56 47.91013 16.66654 3930 ft 195 kts 340°
2026-04-25 11:56 47.92306 16.66107 3679 ft 191 kts 340°
2026-04-25 11:56 47.93541 16.65588 3506 ft 181 kts 340°
2026-04-25 11:57 47.94731 16.65092 3300 ft 171 kts 339°
2026-04-25 11:57 47.95848 16.64620 3168 ft 171 kts 339°
2026-04-25 11:57 47.97000 16.64130 2952 ft 172 kts 340°
2026-04-25 11:57 47.98124 16.63661 2749 ft 162 kts 340°
2026-04-25 11:58 47.99162 16.63226 2550 ft 147 kts 341°
2026-04-25 11:58 48.00085 16.62843 2366 ft 134 kts 340°
2026-04-25 11:58 48.01001 16.62451 2209 ft 141 kts 340°
2026-04-25 11:58 48.01944 16.62052 2012 ft 140 kts 338°
2026-04-25 11:59 48.02859 16.61666 1826 ft 136 kts 339°
2026-04-25 11:59 48.03788 16.61271 1644 ft 142 kts 339°
2026-04-25 11:59 48.04758 16.60862 1456 ft 145 kts 340°
2026-04-25 12:00 48.06654 16.60065 1071 ft 135 kts 339°
2026-04-25 12:00 48.07546 16.59693 891 ft 135 kts 341°
2026-04-25 12:00 48.09262 16.58962 629 ft 141 kts 344°
2026-04-25 12:01 48.10048 16.58633 629 ft 85 kts 345°
2026-04-25 12:01 48.10408 16.58481 628 ft 23 kts 344°
2026-04-25 12:01 48.10572 16.58409 627 ft 28 kts 341°
2026-04-25 12:01 48.10741 16.58260 629 ft 28 kts 320°
2026-04-25 12:02 48.11013 16.57844 623 ft 28 kts 315°
2026-04-25 12:02 48.11168 16.57681 629 ft 28 kts 297°
2026-04-25 12:02 48.11254 16.57416 627 ft 28 kts 296°
2026-04-25 12:03 48.11340 16.57156 622 ft 28 kts 296°
2026-04-25 12:03 48.11428 16.56892 623 ft 28 kts 296°
2026-04-25 12:03 48.11513 16.56631 618 ft 28 kts 296°
2026-04-25 12:03 48.11597 16.56365 626 ft 28 kts 295°
2026-04-25 12:04 48.11723 16.56212 622 ft 14 kts 346°
2026-04-25 12:04 48.11782 16.56188 627 ft 0 kts 345°